Regional Weather Roundup
Issued by NWS Binghamton, NY

Home | Current Version | Previous Version | Text Only | Print | Product List | Glossary On
Versions: 1 2 3 4 5 6 7 8 9 10 11 12 13 14 15 16 17 18 19 20 21 22 23 24 25 26 27
000
ASUS41 KBGM 271610
RWRBGM

REGIONAL WEATHER ROUNDUP
NATIONAL WEATHER SERVICE BINGHAMTON NY
1200 PM EDT MON MAR 27 2017

Note: "fair" indicates few or no clouds below 12,000 feet with no
significant weather and/or obstructions to visibility.

* = Station(s) that does not report precipitation, such as rain,
snow, etc, also no thunder or fog.

NYZ009-015>018-022>025-036-037-044>046-055>057-062-271700
...Central New York...

CITY           SKY/WX    TMP DP  RH WIND       PRES   REMARKS
Binghamton     CLOUDY    40  40 100 SW6       29.98S
Cortland       CLOUDY    45  43  93 S3        29.97F
Dansville      CLOUDY    53  48  83 E8        29.94S
Elmira         CLOUDY    52  45  77 VRB6      29.97F
Seneca Falls   CLOUDY    52  46  82 S9        29.95S
Ithaca         PTSUNNY   48  44  86 S8        29.97S
Hamilton       CLOUDY    39  36  87 SE8       29.98S WCI  34
Monticello     CLOUDY    36  34  93 NE3       30.04F VSB<1/4
Norwich        CLOUDY    43  37  81 S7        30.00F
Oneonta        CLOUDY    43  43 100 SW10      29.98S
Penn Yan       LGT RAIN  49  43  80 S13       29.94S
Rome           CLOUDY    40  39  97 E8        30.00F WCI  34
Sidney         CLOUDY    41  41 100 CALM      30.01S
Syracuse       CLOUDY    49  43  80 S8        29.95S
$$

PAZ038>040-043-044-047-048-072-271700
...Northeast Pennsylvania...

CITY           SKY/WX    TMP DP  RH WIND       PRES   REMARKS
Hazleton       CLOUDY    52  50  93 CALM      30.04F
Scranton       CLOUDY    46  43  89 W3        30.02F
$$
&&
KEY
WCI = Wind Chill Index
VSB = Visibility
HX  = Heat Index
$$




USA.gov is the U.S. government's official web portal to all federal, state and local government web resources and services.